Regional Weather Roundup
Issued by NWS

Home | Current Version | Previous Version | Text Only | Print | Product List | Glossary Off
Versions: 1 2 3 4 5 6 7 8 9 10 11 12 13 14 15 16 17 18 19 20 21 22 23 24 25 26 27 28 29 30 31 32 33 34 35 36 37 38 39 40 41 42 43 44 45 46 47 48 49 50

000
ASUS43 KFSD 231002
RWRSD

WEATHER ROUNDUP FOR SOUTH DAKOTA
NATIONAL WEATHER SERVICE SIOUX FALLS SD
500 AM CDT SAT MAY 23 2015

NOTE: "FAIR" INDICATES FEW OR NO CLOUDS BELOW 12,000 FEET WITH NO
SIGNIFICANT WEATHER AND/OR OBSTRUCTIONS TO VISIBILITY.


SDZ001>005-009-010-012>017-231100-
NORTHWEST AND NORTH CENTRAL SOUTH DAKOTA

CITY           SKY/WX    TMP DP  RH WIND       PRES   REMARKS
FAITH            N/A     46  41  82 SE10      30.10R
MOBRIDGE       CLEAR     45  42  89 E9        30.13R
$$

SDZ012>016-024>037-041>051-057-063-072>074-231100-
SOUTHWEST AND SOUTH CENTRAL SOUTH DAKOTA

CITY           SKY/WX    TMP DP  RH WIND       PRES   REMARKS
RAPID CTY ARPT CLOUDY    48  44  86 S9        30.06S
PIERRE         CLOUDY    49  44  83 E6        30.13R
CUSTER         FOG       40  38  93 VRB3      30.06S VSB 1/4
ELLSWORTH AFB  CLOUDY    47  46  95 S7        30.05
PHILIP         CLOUDY    49  45  86 SE6       30.10S
PINE RIDGE     CLOUDY    48  44  86 E3        30.06F
WINNER         LGT RAIN  51  48  89 SE10      30.12F FOG
$$

SDZ004>011-016>023-039-040-231100-
NORTHEAST SOUTH DAKOTA

CITY           SKY/WX    TMP DP  RH WIND       PRES   REMARKS
ABERDEEN       PTCLDY    43  40  89 SE6       30.19S
WATERTOWN      MOCLDY    50  43  77 CALM      30.20F
BROOKINGS      CLOUDY    52  46  82 CALM      30.22S
$$

SDZ017-020-022-023-036>040-048>070-231100-
SOUTHEAST SOUTH DAKOTA

CITY           SKY/WX    TMP DP  RH WIND       PRES   REMARKS
SIOUX FALLS    CLOUDY    57  45  64 SE8       30.19S
HURON          CLOUDY    51  47  86 SE5       30.19S
CHAMBERLAIN    CLOUDY    50  47  90 SE12      30.14F
MITCHELL       CLOUDY    53  49  86 E7        30.18F
YANKTON        CLOUDY    54  48  82 E5        30.18F
$$

ABBREVIATIONS USED IN REMARKS
   TC - TEMPERATURE IN CELSIUS
  WCI - WIND CHILL INDEX
   HX - HEAT INDEX
  VSB - VISIBILITY



USA.gov is the U.S. government's official web portal to all federal, state and local government web resources and services.